Time,TemperatureF,DewpointF,PressureIn,WindDirection,WindDirectionDegrees,WindSpeedMPH,WindSpeedGustMPH,Humidity,HourlyPrecipIn,Conditions,Clouds,dailyrainin,SoftwareType,DateUTC
2013-04-19 00:13:00,21.9,9.7,30.44,NNE,33,5.0,12.0,59,0.00,CLR,,0.00,WeatherDisplay:10.37,2013-04-19 08:13:00,
2013-04-19 00:28:00,21.8,9.7,30.44,NNE,29,5.0,8.0,59,0.00,CLR,,0.00,WeatherDisplay:10.37,2013-04-19 08:28:00,
2013-04-19 00:43:00,21.8,9.6,30.44,NNE,31,5.0,11.0,59,0.00,CLR,,0.00,WeatherDisplay:10.37,2013-04-19 08:43:00,
2013-04-19 00:58:00,21.3,9.6,30.45,NE,40,5.0,9.0,60,0.00,CLR,,0.00,WeatherDisplay:10.37,2013-04-19 08:58:00,
2013-04-19 01:13:00,21.2,9.5,30.45,NE,44,6.0,10.0,60,0.00,CLR,,0.00,WeatherDisplay:10.37,2013-04-19 09:13:00,
2013-04-19 01:28:00,21.2,9.8,30.45,NE,46,5.0,10.0,61,0.00,CLR,,0.00,WeatherDisplay:10.37,2013-04-19 09:28:00,
2013-04-19 01:43:00,21.3,10.0,30.45,NNE,28,3.0,10.0,61,0.00,CLR,,0.00,WeatherDisplay:10.37,2013-04-19 09:43:00,
2013-04-19 01:58:00,21.0,9.6,30.46,NNE,18,0.0,8.0,61,0.00,CLR,,0.00,WeatherDisplay:10.37,2013-04-19 09:58:00,
2013-04-19 02:13:00,20.5,9.2,30.46,NE,42,5.0,9.0,61,0.00,CLR,,0.00,WeatherDisplay:10.37,2013-04-19 10:13:00,
2013-04-19 02:28:00,20.0,8.7,30.46,NE,51,5.0,8.0,61,0.00,CLR,,0.00,WeatherDisplay:10.37,2013-04-19 10:28:00,
2013-04-19 02:43:00,19.6,8.3,30.46,NE,44,5.0,8.0,61,0.00,CLR,,0.00,WeatherDisplay:10.37,2013-04-19 10:43:00,
2013-04-19 02:58:00,19.3,8.4,30.47,NNE,26,0.0,7.0,62,0.00,CLR,,0.00,WeatherDisplay:10.37,2013-04-19 10:58:00,
2013-04-19 03:13:00,18.9,8.3,30.47,NE,49,5.0,6.0,63,0.00,CLR,,0.00,WeatherDisplay:10.37,2013-04-19 11:13:00,
2013-04-19 03:28:00,18.7,8.2,30.48,NE,48,3.0,9.0,63,0.00,CLR,,0.00,WeatherDisplay:10.37,2013-04-19 11:28:00,
2013-04-19 03:43:00,18.4,8.3,30.48,NE,53,3.0,7.0,64,0.00,CLR,,0.00,WeatherDisplay:10.37,2013-04-19 11:43:00,
2013-04-19 03:58:00,18.6,8.4,30.48,NE,36,3.0,6.0,64,0.00,CLR,,0.00,WeatherDisplay:10.37,2013-04-19 11:58:00,
2013-04-19 04:13:00,19.0,8.8,30.48,NE,49,2.0,7.0,64,0.00,CLR,,0.00,WeatherDisplay:10.37,2013-04-19 12:13:00,
2013-04-19 04:28:00,18.5,8.4,30.48,ENE,62,2.0,6.0,64,0.00,CLR,,0.00,WeatherDisplay:10.37,2013-04-19 12:28:00,
2013-04-19 04:43:00,18.2,8.4,30.49,North,9,0.0,7.0,65,0.00,CLR,,0.00,WeatherDisplay:10.37,2013-04-19 12:43:00,
2013-04-19 04:58:00,18.2,8.4,30.49,NNE,33,1.0,6.0,65,0.00,CLR,,0.00,WeatherDisplay:10.37,2013-04-19 12:58:00,
2013-04-19 05:13:00,17.4,7.9,30.49,ENE,61,1.0,6.0,66,0.00,CLR,,0.00,WeatherDisplay:10.37,2013-04-19 13:13:00,
2013-04-19 05:28:00,17.9,9.1,30.49,NE,47,0.0,3.0,68,0.00,CLR,,0.00,WeatherDisplay:10.37,2013-04-19 13:28:00,
2013-04-19 05:43:00,17.9,8.5,30.50,ENE,68,2.0,5.0,66,0.00,CLR,,0.00,WeatherDisplay:10.37,2013-04-19 13:43:00,
2013-04-19 05:58:00,18.1,9.3,30.50,North,6,1.0,4.0,68,0.00,CLR,,0.00,WeatherDisplay:10.37,2013-04-19 13:58:00,
2013-04-19 06:13:00,17.9,9.1,30.50,NE,42,1.0,5.0,68,0.00,CLR,,0.00,WeatherDisplay:10.37,2013-04-19 14:13:00,
2013-04-19 06:28:00,18.2,9.1,30.50,NNE,27,1.0,5.0,67,0.00,CLR,,0.00,WeatherDisplay:10.37,2013-04-19 14:28:00,
2013-04-19 06:43:00,18.6,9.5,30.50,NNE,32,2.0,7.0,67,0.00,CLR,,0.00,WeatherDisplay:10.37,2013-04-19 14:43:00,
2013-04-19 06:58:00,18.4,8.9,30.50,ENE,63,0.0,5.0,66,0.00,CLR,,0.00,WeatherDisplay:10.37,2013-04-19 14:58:00,
2013-04-19 07:13:00,18.2,9.1,30.50,East,85,3.0,6.0,67,0.00,CLR,,0.00,WeatherDisplay:10.37,2013-04-19 15:13:00,
2013-04-19 07:28:00,18.2,9.4,30.50,ENE,72,2.0,6.0,68,0.00,CLR,,0.00,WeatherDisplay:10.37,2013-04-19 15:28:00,
2013-04-19 07:43:00,18.9,9.8,30.51,West,271,0.0,4.0,67,0.00,CLR,,0.00,WeatherDisplay:10.37,2013-04-19 15:43:00,
2013-04-19 07:58:00,19.6,10.4,30.51,West,260,0.0,0.0,67,0.00,CLR,,0.00,WeatherDisplay:10.37,2013-04-19 15:58:00,
2013-04-19 08:13:00,20.6,11.1,30.52,NE,45,1.0,5.0,66,0.00,CLR,,0.00,WeatherDisplay:10.37,2013-04-19 16:13:00,
2013-04-19 08:28:00,21.4,11.5,30.52,ENE,58,5.0,6.0,65,0.00,CLR,,0.00,WeatherDisplay:10.37,2013-04-19 16:28:00,
2013-04-19 08:43:00,21.9,11.6,30.53,ENE,58,5.0,7.0,64,0.00,CLR,,0.00,WeatherDisplay:10.37,2013-04-19 16:43:00,
2013-04-19 08:58:00,22.5,11.7,30.53,ENE,70,1.0,8.0,63,0.00,CLR,,0.00,WeatherDisplay:10.37,2013-04-19 16:58:00,
2013-04-19 09:13:00,21.6,10.9,30.53,WSW,242,3.0,5.0,63,0.00,CLR,,0.00,WeatherDisplay:10.37,2013-04-19 17:13:00,
2013-04-19 09:28:00,21.9,11.3,30.53,SW,232,0.0,5.0,63,0.00,CLR,,0.00,WeatherDisplay:10.37,2013-04-19 17:28:00,
2013-04-19 09:43:00,22.9,11.8,30.54,SW,232,0.0,0.0,62,0.00,CLR,,0.00,WeatherDisplay:10.37,2013-04-19 17:43:00,
2013-04-19 09:58:00,23.6,12.1,30.54,SW,232,0.0,2.0,61,0.00,CLR,,0.00,WeatherDisplay:10.37,2013-04-19 17:58:00,
2013-04-19 10:13:00,24.5,12.9,30.54,SSW,210,0.0,2.0,61,0.00,CLR,,0.00,WeatherDisplay:10.37,2013-04-19 18:13:00,
2013-04-19 10:28:00,25.7,13.8,30.53,NW,322,3.0,5.0,60,0.00,CLR,,0.00,WeatherDisplay:10.37,2013-04-19 18:28:00,
2013-04-19 10:43:00,26.1,14.1,30.53,SW,232,0.0,5.0,60,0.00,CLR,,0.00,WeatherDisplay:10.37,2013-04-19 18:43:00,
2013-04-19 10:58:00,26.9,14.1,30.53,West,262,2.0,4.0,58,0.00,CLR,,0.00,WeatherDisplay:10.37,2013-04-19 18:58:00,
2013-04-19 11:15:00,27.9,15.0,30.53,WSW,248,1.0,5.0,58,0.00,CLR,,0.00,WeatherDisplay:10.37,2013-04-19 19:15:00,
2013-04-19 11:30:00,29.4,15.6,30.53,SE,138,1.0,7.0,56,0.00,CLR,,0.00,WeatherDisplay:10.37,2013-04-19 19:30:00,
2013-04-19 11:45:00,30.2,16.0,30.53,East,94,1.0,7.0,55,0.00,CLR,,0.00,WeatherDisplay:10.37,2013-04-19 19:45:00,
2013-04-19 12:00:00,29.7,15.1,30.53,WNW,284,3.0,7.0,54,0.00,CLR,,0.00,WeatherDisplay:10.37,2013-04-19 20:00:00,
2013-04-19 12:15:00,30.3,15.2,30.53,WSW,245,3.0,7.0,53,0.00,CLR,,0.00,WeatherDisplay:10.37,2013-04-19 20:15:00,
2013-04-19 12:30:00,30.8,15.7,30.52,West,270,2.0,8.0,53,0.00,CLR,,0.00,WeatherDisplay:10.37,2013-04-19 20:30:00,
2013-04-19 12:45:00,31.0,15.4,30.52,WSW,256,5.0,8.0,52,0.00,CLR,,0.00,WeatherDisplay:10.37,2013-04-19 20:45:00,
2013-04-19 13:00:00,31.4,16.2,30.52,SSW,197,1.0,7.0,53,0.00,CLR,,0.00,WeatherDisplay:10.37,2013-04-19 21:00:00,
2013-04-19 13:15:00,32.2,16.5,30.52,WSW,253,3.0,7.0,52,0.00,CLR,,0.00,WeatherDisplay:10.37,2013-04-19 21:15:00,
2013-04-19 13:30:00,33.4,17.6,30.51,SW,215,3.0,8.0,52,0.00,CLR,,0.00,WeatherDisplay:10.37,2013-04-19 21:30:00,
2013-04-19 13:45:00,33.4,17.6,30.51,WNW,284,5.0,8.0,52,0.00,CLR,,0.00,WeatherDisplay:10.37,2013-04-19 21:45:00,
2013-04-19 14:00:00,33.7,17.5,30.51,West,270,5.0,7.0,51,0.00,CLR,,0.00,WeatherDisplay:10.37,2013-04-19 22:00:00,
2013-04-19 14:15:00,34.2,18.4,30.51,West,261,3.0,9.0,52,0.00,CLR,,0.00,WeatherDisplay:10.37,2013-04-19 22:15:00,
2013-04-19 14:30:00,35.2,19.3,30.50,SW,235,5.0,9.0,52,0.00,CLR,,0.00,WeatherDisplay:10.37,2013-04-19 22:30:00,
2013-04-19 14:45:00,35.4,18.1,30.50,West,267,2.0,8.0,49,0.00,CLR,,0.00,WeatherDisplay:10.37,2013-04-19 22:45:00,
2013-04-19 15:00:00,35.5,18.2,30.50,WSW,244,5.0,8.0,49,0.00,CLR,,0.00,WeatherDisplay:10.37,2013-04-19 23:00:00,
2013-04-19 15:15:00,37.1,19.7,30.50,ENE,73,3.0,7.0,49,0.00,CLR,,0.00,WeatherDisplay:10.37,2013-04-19 23:15:00,
2013-04-19 15:30:00,37.7,19.8,30.49,SW,219,3.0,8.0,48,0.00,CLR,,0.00,WeatherDisplay:10.37,2013-04-19 23:30:00,
2013-04-19 15:45:00,38.1,19.7,30.49,WSW,255,6.0,8.0,47,0.00,CLR,,0.00,WeatherDisplay:10.37,2013-04-19 23:45:00,
2013-04-19 16:00:00,38.1,20.1,30.48,West,274,5.0,8.0,48,0.00,CLR,,0.00,WeatherDisplay:10.37,2013-04-20 00:00:00,
2013-04-19 16:15:00,38.7,20.2,30.48,WSW,250,1.0,7.0,47,0.00,CLR,,0.00,WeatherDisplay:10.37,2013-04-20 00:15:00,
2013-04-19 16:31:00,39.4,19.2,30.48,West,262,5.0,6.0,44,0.00,CLR,,0.00,WeatherDisplay:10.37,2013-04-20 00:31:00,
2013-04-19 16:45:00,40.1,19.4,30.47,WNW,282,3.0,8.0,43,0.00,CLR,,0.00,WeatherDisplay:10.37,2013-04-20 00:45:00,
2013-04-19 17:00:00,39.6,19.5,30.47,SW,224,5.0,10.0,44,0.00,CLR,,0.00,WeatherDisplay:10.37,2013-04-20 01:00:00,
2013-04-19 17:15:00,40.2,20.0,30.46,WSW,255,6.0,8.0,44,0.00,CLR,,0.00,WeatherDisplay:10.37,2013-04-20 01:15:00,
2013-04-19 17:31:00,40.7,19.9,30.46,SW,217,6.0,8.0,43,0.00,CLR,,0.00,WeatherDisplay:10.37,2013-04-20 01:31:00,
2013-04-19 17:46:00,42.5,21.0,30.45,SE,125,2.0,7.0,42,0.00,CLR,,0.00,WeatherDisplay:10.37,2013-04-20 01:46:00,
2013-04-19 18:01:00,45.2,21.1,30.39,ENE,68,0.0,5.0,38,0.00,CLR,,0.00,WeatherDisplay:10.37,2013-04-20 02:01:00,
2013-04-19 18:16:00,44.1,16.1,30.40,NNE,25,2.0,7.0,32,0.00,CLR,,0.00,WeatherDisplay:10.37,2013-04-20 02:16:00,
2013-04-19 18:31:00,41.7,14.7,30.41,NNW,329,2.0,8.0,33,0.00,CLR,,0.00,WeatherDisplay:10.37,2013-04-20 02:31:00,
2013-04-19 18:46:00,41.0,14.1,30.41,NW,326,6.0,9.0,33,0.00,CLR,,0.00,WeatherDisplay:10.37,2013-04-20 02:46:00,
2013-04-19 19:01:00,40.9,14.6,30.41,North,350,3.0,8.0,34,0.00,CLR,,0.00,WeatherDisplay:10.37,2013-04-20 03:01:00,
2013-04-19 19:16:00,41.1,14.8,30.41,NNW,334,5.0,8.0,34,0.00,CLR,,0.00,WeatherDisplay:10.37,2013-04-20 03:16:00,
2013-04-19 19:31:00,41.2,14.9,30.40,NNW,332,3.0,9.0,34,0.00,CLR,,0.00,WeatherDisplay:10.37,2013-04-20 03:31:00,
2013-04-19 19:46:00,41.7,16.6,30.40,NNE,29,2.0,6.0,36,0.00,CLR,,0.00,WeatherDisplay:10.37,2013-04-20 03:46:00,
2013-04-19 20:01:00,42.7,18.2,30.39,NNE,25,0.0,6.0,37,0.00,CLR,,0.00,WeatherDisplay:10.37,2013-04-20 04:01:00,
2013-04-19 20:31:00,43.1,17.9,30.39,NE,53,2.0,5.0,36,0.00,CLR,,0.00,WeatherDisplay:10.37,2013-04-20 04:31:00,
2013-04-19 20:46:00,42.2,18.4,30.39,ENE,71,2.0,5.0,38,0.00,CLR,,0.00,WeatherDisplay:10.37,2013-04-20 04:46:00,
2013-04-19 21:01:00,40.6,17.0,30.39,NE,51,0.0,4.0,38,0.00,CLR,,0.00,WeatherDisplay:10.37,2013-04-20 05:01:00,
2013-04-19 21:16:00,39.0,16.1,30.39,ENE,68,1.0,3.0,39,0.00,CLR,,0.00,WeatherDisplay:10.37,2013-04-20 05:16:00,
2013-04-19 21:31:00,37.3,15.7,30.40,ENE,76,2.0,4.0,41,0.00,CLR,,0.00,WeatherDisplay:10.37,2013-04-20 05:31:00,
2013-04-19 21:46:00,35.7,14.2,30.40,ENE,70,2.0,4.0,41,0.00,CLR,,0.00,WeatherDisplay:10.37,2013-04-20 05:46:00,
2013-04-19 22:01:00,34.2,14.0,30.40,East,79,2.0,5.0,43,0.00,CLR,,0.00,WeatherDisplay:10.37,2013-04-20 06:01:00,
2013-04-19 22:16:00,32.9,13.4,30.40,ENE,77,3.0,5.0,44,0.00,CLR,,0.00,WeatherDisplay:10.37,2013-04-20 06:16:00,
2013-04-19 22:31:00,31.9,12.4,30.40,East,80,2.0,5.0,44,0.00,CLR,,0.00,WeatherDisplay:10.37,2013-04-20 06:31:00,
2013-04-19 22:46:00,31.1,12.2,30.40,East,82,2.0,5.0,45,0.00,CLR,,0.00,WeatherDisplay:10.37,2013-04-20 06:46:00,
2013-04-19 23:01:00,30.4,11.6,30.40,East,80,3.0,5.0,45,0.00,CLR,,0.00,WeatherDisplay:10.37,2013-04-20 07:01:00,
2013-04-19 23:16:00,29.9,11.1,30.41,ENE,78,3.0,6.0,45,0.00,CLR,,0.00,WeatherDisplay:10.37,2013-04-20 07:16:00,
2013-04-19 23:31:00,29.6,10.8,30.41,East,84,5.0,6.0,45,0.00,CLR,,0.00,WeatherDisplay:10.37,2013-04-20 07:31:00,
2013-04-19 23:46:00,29.4,10.6,30.41,East,88,3.0,6.0,45,0.00,CLR,,0.00,WeatherDisplay:10.37,2013-04-20 07:46:00,